Regional Weather Roundup
Issued by NWS Cleveland, OH

Home | Current Version | Previous Version | Graphics & Text | Print | Product List | Glossary On
Versions: 1 2 3 4 5 6 7 8 9 10 11 12 13 14 15 16 17 18 19 20 21 22 23 24 25 26 27 28 29 30 31 32 33 34 35 36 37 38 39 40 41 42 43 44 45 46 47 48 49 50
699
ASUS41 KCLE 232210
RWRCLE
OHIO REGIONAL WEATHER ROUNDUP
NATIONAL WEATHER SERVICE WILMINGTON, OH
500 PM EST FRI FEB 23 2018

NOTE: "FAIR" INDICATES FEW OR NO CLOUDS BELOW 12,000 FEET WITH NO
SIGNIFICANT WEATHER AND/OR OBSTRUCTIONS TO VISIBILITY.

OHZ001>008-015>018-024>027-034-035-043-044-232300-
   NORTHWEST OHIO

CITY           SKY/WX    TMP DP  RH WIND       PRES   REMARKS
DEFIANCE       CLOUDY    49  46  90 W8        30.17R
FINDLAY        CLOUDY    56  48  74 W20G25    30.15R
TOLEDO EXPRESS CLOUDY    50  48  93 W20       30.15R
TOLEDO EXEC    CLOUDY    51  47  86 W16G25    30.15R
LIMA           CLOUDY    55  51  86 W15       30.16R
$$

OHZ009>014-019>023-028>033-038-089-232300-
   NORTHEAST OHIO

CITY           SKY/WX    TMP DP  RH WIND       PRES   REMARKS
CLE-HOPKINS    CLOUDY    61  54  77 W18       30.13S
CLE-LAKEFRONT  FOG       46  44  93 W7        30.12R VSB 1
CUY CO. ARPT   CLOUDY    54  52  94 W14G23    30.12R
LORAIN-ELYRIA  CLOUDY    60  50  69 W15       30.12S
ASHTABULA      CLOUDY    59  56  89 W9        30.10S
AKRON-CANTON   CLOUDY    62  56  80 W12       30.14S
WOOSTER        CLOUDY    60  56  86 W10       30.15S
MANSFIELD      CLOUDY    59  55  87 SW15G25   30.14S
YOUNGSTOWN     DRIZZLE   59  57  93 SW12      30.13S
$$

OHZ042-051>053-060>062-070>072-077>081-232300-
  SOUTHWEST OHIO

CITY           SKY/WX    TMP DP  RH WIND       PRES   REMARKS
CINC-COVINGTON CLOUDY    60  57  89 W13       30.22R
CINC-LUNKEN    PTSUNNY   63  60  90 W6        30.21S
HAMILTON       CLOUDY    59  57  93 SW7       30.22R
DAYTON         CLOUDY    57  54  89 W15       30.22R
WRIGHT-PAT AFB CLOUDY    59  55  86 SW17      30.20R
DAYTON GENERAL LGT RAIN  59  56  89 W9        30.20R
WILMINGTON     PTSUNNY   62  60  93 W13       30.19R
$$

OHZ036-037-039>041-045>050-054>059-063>069-073>076-082>088-232300-
  CENTRAL AND SOUTHEAST OHIO

CITY           SKY/WX    TMP DP  RH WIND       PRES   REMARKS
COLUMBUS       CLOUDY    62  60  93 W8        30.17F
OSU AIRPORT    FAIR      60  58  92 W8        30.18R
BOLTON FIELD   PTSUNNY   61  57  88 W7        30.19R
RICKENBACK AFB PTSUNNY   62  61  96 W8        30.19R
NEWARK         PTSUNNY   64  59  83 W12       30.16F
MARION         CLOUDY    60  52  74 W16G24    30.15F
LANCASTER      FAIR      63  60  90 SW10      30.19R
ZANESVILLE     CLOUDY    65  57  75 W8        30.17F
NEW PHILLY     CLOUDY    63  58  83 VRB6      30.16F
$$




USA.gov is the U.S. government's official web portal to all federal, state and local government web resources and services.